Luke AFB, AZ

12:26 PM MST on December 04, 2016 (GMT -0700)
Luke Air Force Base

Weather History for KLUF - February, 2012

Change the Weather History Date:

Sunday, February 26, 2012

  Actual Average Record
Temperature  
Mean Temperature 61 °F -  
Max Temperature 78 °F 76 °F 92 °F (1986)
Min Temperature 44 °F 43 °F 26 °F (1937)
Degree Days  
Heating Degree Days 4    
Growing Degree Days 11 (Base 50)    
Moisture  
Dew Point 29 °F    
Average Humidity 33    
Maximum Humidity 55    
Minimum Humidity 15    
Precipitation  
Precipitation 0.00 in - - ()
Sea Level Pressure  
Sea Level Pressure 29.84 in    
Wind  
Wind Speed 4 mph (North)    
Max Wind Speed 7 mph    
Max Gust Speed -    
Visibility 10 miles    
Events      
Averages and records for this station are not official NWS values.
T = Trace of Precipitation, MM = Missing Value Source: NWS Daily Summary

Daily Weather History Graph

Daily Weather History Graph

Search for Another Location

Airport or City:

Trip Planner

Search our weather history database for the weather conditions in past years. The results will help you decide how hot, cold, wet, or windy it might be!

Date:

Astronomy

Feb. 26, 2012 Rise Set
Actual Time 7:01 AM MST 6:23 PM MST
Civil Twilight 6:36 AM MST 6:48 PM MST
Nautical Twilight 6:08 AM MST 7:17 PM MST
Astronomical Twilight 5:39 AM MST 7:46 PM MST
Moon 9:16 AM MST (2/26) 11:06 PM MST (2/26)
Length of Visible Light 12h 11m
Length of Day
11h 21m
Waxing Crescent, 21% of the Moon is Illuminated
Feb 26
Waxing Crescent
Feb 29
First Quarter
Mar 8
Full
Mar 14
Last Quarter
Mar 22
New

Hourly Weather History & Observations

Time (MST) Temp. Windchill Dew Point Humidity Pressure Visibility Wind Dir Wind Speed Gust Speed Precip Events Conditions
12:55 AM 52.0 °F - 30.6 °F 44% 29.87 in 10.0 mi North 4.6 mph - N/A   Clear
1:55 AM 50.0 °F - 29.5 °F 45% 29.87 in 10.0 mi NNW 4.6 mph - N/A   Clear
2:55 AM 48.4 °F - 29.7 °F 48% 29.86 in 10.0 mi NNW 5.8 mph - N/A   Clear
3:55 AM 46.6 °F - 27.1 °F 47% 29.86 in 10.0 mi NNW 6.9 mph - N/A   Clear
4:55 AM 46.6 °F - 24.4 °F 42% 29.86 in 10.0 mi NNE 3.5 mph - N/A   Clear
5:55 AM 44.4 °F 42.9 °F 28.9 °F 55% 29.87 in 10.0 mi NNW 3.5 mph - N/A   Clear
6:55 AM 44.8 °F 43.3 °F 23.9 °F 44% 29.88 in 10.0 mi NNE 3.5 mph - N/A   Clear
7:55 AM 46.9 °F - 25.7 °F 44% 29.91 in 10.0 mi Calm Calm - N/A   Clear
8:55 AM 55.2 °F - 25.7 °F 32% 29.92 in 10.0 mi NNE 3.5 mph - N/A   Clear
9:55 AM 61.0 °F - 25.3 °F 26% 29.91 in 10.0 mi ENE 3.5 mph - N/A   Clear
10:55 AM 66.2 °F - 25.5 °F 22% 29.91 in 10.0 mi ENE 3.5 mph - N/A   Clear
11:55 AM 69.8 °F - 26.2 °F 20% 29.89 in 10.0 mi SSE 4.6 mph - N/A   Clear
12:55 PM 72.7 °F - 26.1 °F 18% 29.86 in 10.0 mi SSE 4.6 mph - N/A   Clear
1:55 PM 75.2 °F - 26.4 °F 16% 29.82 in 10.0 mi Calm Calm - N/A   Clear
2:55 PM 76.6 °F - 27.3 °F 16% 29.81 in 10.0 mi Calm Calm - N/A   Clear
3:55 PM 78.1 °F - 27.3 °F 15% 29.79 in 10.0 mi Calm Calm - N/A   Clear
4:55 PM 77.4 °F - 27.7 °F 16% 29.78 in 10.0 mi Calm Calm - N/A   Clear
5:55 PM 75.9 °F - 29.5 °F 18% 29.77 in 10.0 mi NNW 3.5 mph - N/A   Clear
6:55 PM 70.9 °F - 28.4 °F 21% 29.78 in 10.0 mi WNW 4.6 mph - N/A   Clear
7:55 PM 63.1 °F - 39.9 °F 42% 29.79 in 10.0 mi NW 3.5 mph - N/A   Clear
8:55 PM 59.2 °F - 34.7 °F 40% 29.80 in 10.0 mi WNW 6.9 mph - N/A   Clear
9:55 PM 57.0 °F - 37.0 °F 47% 29.82 in 10.0 mi Calm Calm - N/A   Clear
10:55 PM 57.2 °F - 31.6 °F 38% 29.81 in 10.0 mi NNE 4.6 mph - N/A   Clear
11:55 PM 57.0 °F - 30.4 °F 36% 29.82 in 10.0 mi SSW 6.9 mph - N/A   Clear